Regional Weather Roundup
Issued by NWS Little Rock, AR

Home | Current Version | Previous Version | Graphics & Text | Print | Product List | Glossary On
Versions: 1 2 3 4 5 6 7 8 9 10 11 12 13 14 15 16 17 18 19 20 21 22 23 24 25 26 27 28 29 30 31 32 33 34 35 36 37 38 39 40 41 42 43 44 45 46 47 48 49 50
000
ASUS44 KLZK 210205
RWRLZK

WEATHER ROUNDUP FOR ARKANSAS
NATIONAL WEATHER SERVICE LITTLE ROCK AR
800 PM CST FRI JAN 20 2017

NOTE: "FAIR" INDICATES FEW OR NO CLOUDS BELOW 12,000 FEET WITH NO
SIGNIFICANT WEATHER AND/OR OBSTRUCTIONS TO VISIBILITY.

ARZ001-003-010-029-210300-
NORTHWEST ARKANSAS

CITY           SKY/WX    TMP DP  RH WIND       PRES   REMARKS
FAYETTEVILLE   CLEAR     55  40  56 S8        29.58R
FORT SMITH     CLEAR     59  38  45 S6        29.58R
HARRISON       CLEAR     58  39  49 S10       29.58S
BENTONVILLE    CLEAR    N/A N/A N/A S9        29.56S
ROGERS         PTCLDY    57  39  51 S13       29.57R
SILOAM SPGS    CLEAR     57  37  47 S12       29.55S
HIGHFILL       CLEAR     56  39  53 S10       29.56R
SPRINGDALE     CLEAR     57  39  51 S13       29.59R
$$

ARZ004-005-016-210300-
NORTH CENTRAL ARKANSAS

CITY           SKY/WX    TMP DP  RH WIND       PRES   REMARKS
BATESVILLE     CLEAR     57  48  72 CALM      29.64S
FLIPPIN        CLEAR     57  43  58 S3        29.57R
MTN HOME       CLEAR     57  46  66 S6        29.59R
$$

ARZ040-041-210300-
WEST CENTRAL ARKANSAS

CITY           SKY/WX    TMP DP  RH WIND       PRES   REMARKS
MENA           CLEAR     64  43  45 SW7       29.64R
MOUNT IDA      CLEAR     65  40  39 VRB5      29.60S
$$

ARZ009-017-025-026-028-210300-
NORTHEAST ARKANSAS

CITY           SKY/WX    TMP DP  RH WIND       PRES   REMARKS
CORNING        FAIR      57  55  94 S12       29.64S
JONESBORO      CLOUDY    58  54  86 S9        29.65R
NEWPORT        CLEAR     56  53  90 MISG        N/A
WALNUT RIDGE   CLEAR     55  52  88 S13       29.63S
BLYTHEVILLE    CLOUDY    60  54  80 S9        29.67S
$$

ARZ022-023-033-042-044-210300-
CENTRAL ARKANSAS

CITY           SKY/WX    TMP DP  RH WIND       PRES   REMARKS
LITTLE ROCK    CLOUDY    53  49  86 CALM      29.66R
N LITTLE ROCK    N/A     59  50  74 S3        29.66F
JACKSONVILLE   MOCLDY    60  51  72 S7        29.64F
SEARCY         MOCLDY    57  50  77 S7        29.66S
HOT SPRINGS    CLEAR     59  47  64 SE5       29.65R
RUSSELLVILLE   CLEAR     49  45  86 CALM      29.62R
CLINTON        FAIR      48  46  93 CALM      29.63R
$$

ARZ036-210300-
EAST ARKANSAS

CITY           SKY/WX    TMP DP  RH WIND       PRES   REMARKS
WEST MEMPHIS   CLOUDY    62  55  77 S13       29.66S
$$

ARZ050-053-066-070-073-210300-
SOUTHWEST ARKANSAS

CITY           SKY/WX    TMP DP  RH WIND       PRES   REMARKS
ARKADELPHIA    FAIR      55  51  86 S3        29.66S
CAMDEN         CLOUDY    61  46  59 S5        29.67S
TEXARKANA      CLEAR     62  51  67 S8        29.66R
EL DORADO      MOCLDY    61  51  70 S6        29.68R
DE QUEEN       CLEAR     50  47  89 CALM      29.62R
$$

ARZ056-057-069-210300-
SOUTHEAST ARKANSAS

CITY           SKY/WX    TMP DP  RH WIND       PRES   REMARKS
PINE BLUFF     MOCLDY    59  50  72 SE8       29.67R
STUTTGART      CLOUDY    59  46  63 S6        29.68S
MONTICELLO     CLOUDY    62  49  62 S5        29.69S

$$





USA.gov is the U.S. government's official web portal to all federal, state and local government web resources and services.